Regional Weather Roundup
Issued by NWS

Home | Current Version | Previous Version | Graphics & Text | Print | Product List | Glossary On
Versions: 1 2 3 4 5 6 7 8 9 10 11 12 13 14 15 16 17 18 19 20 21 22 23 24 25 26 27 28 29 30 31 32 33 34 35 36 37 38 39 40 41 42 43 44 45 46 47 48 49 50
000
ASUS43 KLOT 252206
RWRIL

ILLINOIS REGIONAL WEATHER ROUNDUP
NATIONAL WEATHER SERVICE CHICAGO/ROMEOVILLE IL
500 PM CDT SAT OCT 25 2014

NOTE: "FAIR" INDICATES FEW OR NO CLOUDS BELOW 12,000 FEET WITH NO
SIGNIFICANT WEATHER AND/OR OBSTRUCTIONS TO VISIBILITY.

* THESE STATIONS ARE NOT UNDER NWS QUALITY CONTROL. THEY ALSO MAY NOT
  REPORT WEATHER SUCH AS PRECIPITATION OR FOG.

ILZ001-002-007-009-015-016-024-252300-
NORTHWEST ILLINOIS

CITY           SKY/WX    TMP DP  RH WIND       PRES   REMARKS
MOLINE         SUNNY     70  35  27 NW9       29.99F
STERLING*      SUNNY     70  34  26 NW17      29.98S
SAVANNA*       SUNNY     69  30  23 NW9       29.99R
$$

ILZ003-004-008-010-011-017-018-252300-
NORTH CENTRAL ILLINOIS

CITY           SKY/WX    TMP DP  RH WIND       PRES   REMARKS
ROCKFORD       CLEAR     68  29  23 NW16G26   29.96S
FREEPORT*      CLEAR     66  31  26 W14       29.98S
ROCHELLE*      CLEAR     68  29  23 NW18G28   29.97R
DE KALB*       CLEAR     67  32  27 W14G21    29.95S
PERU*          CLEAR     70  33  25 NW13      29.97F
$$

ILZ005-006-012>014-019>023-252300-
NORTHEAST ILLINOIS

CITY           SKY/WX    TMP DP  RH WIND       PRES   REMARKS
CHICAGO-OHARE  PTCLDY    69  28  21 W18       29.91R
CHICAGO-MIDWAY PTCLDY    72  29  20 W16G23    29.91S
AURORA         CLEAR     70  27  20 NW14G23   29.94S
LANSING*       CLEAR     70  31  22 W15G24    29.91S
JOLIET*        CLEAR     71  30  21 NW13G20   29.93S
WAUKEGAN       CLEAR     67  27  22 W12G20    29.89S
DUPAGE AIRPORT CLEAR     70  30  22 W17       29.92F
KANKAKEE*      CLEAR     71  36  27 W14       29.94S
WHEELING       CLEAR     71  26  18 NW14G22   29.92S
MORRIS*        CLEAR     71  34  25 NW16      29.93S
ROMEOVILLE*    CLEAR     70  26  19 NW12G17   29.93S
NORTHERLY ISL    N/A     71  23  16 W20         N/A
$$

LMZ740>746-252300-
SOUTHERN LAKE MICHIGAN

STATION/POSITION SKY/WX   TEMP    WIND        PRES    VSBY  WAVE
                          AIR SEA DIR/SP/G                  HT/PER
                          (F)     (DEG/KT/KT) (MB)    (MI)  (FT/S)
SOUTHERN BUOY              60 54  280/ 14/ 16 1011.5F         1/ 3
WAUKEGAN HARBOR            70     280/ 16/ 23   N/A
HARRISON CRIB              70     280/ 22/ 27   N/A
BURNHAM HARBOR             71     270/  9/ 20   N/A
CALUMET HARBOR             72     260/  5/ 13 1011.4F
MICHIGAN CITY              63     240/  9/ 11   N/A
$$

ILZ025>027-034>036-040-047-049-050-058-095>099-252300-
WEST-CENTRAL ILLINOIS

CITY           SKY/WX    TMP DP  RH WIND       PRES   REMARKS
QUINCY         SUNNY     75  44  33 NW5       30.02S
GALESBURG*     SUNNY     70  40  33 NW7       30.01S
MACOMB*        SUNNY     73  41  32 NW10      30.04S
JACKSONVILLE*  SUNNY     79  47  33 NW8       30.01S
PITTSFIELD*    SUNNY     78  45  30 NW6       30.02F
$$

ILZ028>032-037-038-041>044-048-051>054-059>061-252300-
CENTRAL ILLINOIS

CITY           SKY/WX    TMP DP  RH WIND       PRES   REMARKS
PONTIAC        CLEAR     72  39  29 W12       29.97F
BLOOMINGTON    SUNNY     73  41  31 NW12      30.00S
DECATUR        SUNNY     75  47  36 NW9       29.99S
PEORIA         SUNNY     75  37  25 NW7       29.99S
LACON*         SUNNY     71  33  24 W7        29.98S
LINCOLN*       SUNNY     76  48  36 NW3       29.97S
SPRINGFIELD    SUNNY     79  48  33 NW7       30.00S
TAYLORVILLE    SUNNY     77  46  33 NW6       30.00S
$$

ILZ033-039-045-046-055>057-062-063-252300-
EAST-CENTRAL ILLINOIS

CITY           SKY/WX    TMP DP  RH WIND       PRES   REMARKS
CHAMPAIGN      CLEAR     74  44  34 NW13      29.98R
DANVILLE*      CLEAR     73  47  40 W12       29.93S
RANTOUL*       CLEAR     75  42  31 NW7       29.97S
MATTOON        SUNNY     74  49  41 NW10      29.97S
PARIS*         CLEAR     76  46  33 W12       29.97S
$$

ILZ079-100>102-252300-
SOUTHWEST ILLINOIS

CITY           SKY/WX    TMP DP  RH WIND       PRES   REMARKS
ALTON          SUNNY     79  43  27 CALM      30.01
BELLEVILLE     SUNNY     77  58  51 NW6       30.00S
CAHOKIA*       SUNNY     81  53  37 NW5       30.00S HX  80
SPARTA*        SUNNY     79  56  45 CALM      30.01S
$$

ILZ064>066-069>071-074>076-080>082-084>086-088>090-092>094-252300-
SOUTH-CENTRAL ILLINOIS

CITY           SKY/WX    TMP DP  RH WIND       PRES   REMARKS
CARBONDALE     SUNNY     80  53  39 NW5       30.00S HX  80
CAIRO*         SUNNY     82  57  41 W5        30.00S HX  82
EFFINGHAM*     SUNNY     77  48  35 W6        29.99F
MT. VERNON     SUNNY     79  52  38 CALM      30.01S
CENTRALIA*     SUNNY     77  50  38 NW5       30.01R
SALEM*         SUNNY     79  54  42 NW5       30.01S
METROPOLIS*    SUNNY     79  60  52 CALM      30.00R HX  80
$$

ILZ067-068-072-073-078-083-087-091-252300-
SOUTHEAST ILLINOIS

CITY           SKY/WX    TMP DP  RH WIND       PRES   REMARKS
LAWRENCEVILLE  HAZE      78  53  41 NW9       29.98R VSB 1/2
FLORA*         SUNNY     77  51  39 NW7       30.00S
FAIRFIELD*     SUNNY     78  51  38 CALM      29.99S
HARRISBURG*    SUNNY     78  53  41 N3        30.01R
ROBINSON*      CLEAR     80  48  32 W7        29.98S
CARMI*         SUNNY     80  55  40 NW5       29.98S HX  80
$$

ABBREVIATIONS USED IN REMARKS
   TC - TEMPERATURE IN CELSIUS
  WCI - WIND CHILL INDEX
   HX - HEAT INDEX
  VSB - VISIBILITY
$$




USA.gov is the U.S. government's official web portal to all federal, state and local government web resources and services.